When you browse on this site, cookies collect data to enhance your experience and personalize the content and advertising you see.
Visit our Privacy Policy to learn more. By continuing to use the site, you agree to this use of cookies and data.
  • In Deutschland
  • Länderverzeichnis
  • Für 7 Tage
  • Wassertemperatur
  • Wetterkarte
  • Widgets
  • user-avatar
    Anmelden

    Stündliche Wetter Aumuhle

    Heute, 28 Februar, Freitag

    Zeit Temperatur Niederschläge Wind Luftdruck Luftfeuchtigkeit
    00:00 +2°C° 0 mm 2 m/S 749 mmHg 90%
    01:00 +1°C° 0 mm 3 m/S 750 mmHg 94%
    02:00 +1°C° 0.1 mm 3 m/S 751 mmHg 93%
    03:00 0°C° 0.1 mm 4 m/S 751 mmHg 91%
    04:00 +1°C° 0.1 mm 4 m/S 752 mmHg 90%
    05:00 0°C° 0 mm 4 m/S 753 mmHg 89%
    06:00 0°C° 0 mm 4 m/S 753 mmHg 89%
    07:00 0°C° 0 mm 3 m/S 754 mmHg 92%
    08:00 +1°C° 0 mm 4 m/S 755 mmHg 87%
    09:00 +2°C° 0 mm 5 m/S 755 mmHg 83%
    10:00 +3°C° 0 mm 6 m/S 756 mmHg 78%
    11:00 +4°C° 0 mm 6 m/S 756 mmHg 75%
    12:00 +4°C° 0 mm 6 m/S 757 mmHg 71%
    13:00 +5°C° 0 mm 6 m/S 757 mmHg 68%
    14:00 +5°C° 0 mm 6 m/S 757 mmHg 68%
    15:00 +5°C° 0 mm 5 m/S 757 mmHg 69%
    16:00 +5°C° 0 mm 5 m/S 757 mmHg 69%
    17:00 +4°C° 0 mm 4 m/S 756 mmHg 73%
    18:00 +3°C° 0 mm 3 m/S 756 mmHg 76%
    19:00 +3°C° 0 mm 3 m/S 755 mmHg 80%
    20:00 +3°C° 0 mm 3 m/S 755 mmHg 78%
    21:00 +3°C° 0 mm 4 m/S 754 mmHg 77%
    22:00 +3°C° 0 mm 4 m/S 753 mmHg 76%
    23:00 +1°C° 0.4 mm 5 m/S 752 mmHg 81%

    Morgen, 29 Februar, Samstag

    Zeit Temperatur Niederschläge Wind Luftdruck Luftfeuchtigkeit
    00:00 +1°C° 0.4 mm 5 m/S 751 mmHg 86%
    01:00 +1°C° 0.4 mm 6 m/S 750 mmHg 91%
    02:00 +1°C° 1.3 mm 6 m/S 749 mmHg 92%
    03:00 +1°C° 1.3 mm 6 m/S 748 mmHg 92%
    04:00 +2°C° 1.3 mm 6 m/S 747 mmHg 92%
    05:00 +3°C° 0.7 mm 6 m/S 746 mmHg 92%
    06:00 +4°C° 0.7 mm 6 m/S 745 mmHg 92%
    07:00 +4°C° 0.7 mm 6 m/S 744 mmHg 92%
    08:00 +5°C° 0 mm 6 m/S 744 mmHg 90%
    09:00 +5°C° 0 mm 6 m/S 743 mmHg 89%
    10:00 +7°C° 0 mm 6 m/S 743 mmHg 87%
    11:00 +8°C° 0 mm 6 m/S 742 mmHg 83%
    12:00 +9°C° 0 mm 6 m/S 742 mmHg 78%
    13:00 +10°C° 0 mm 6 m/S 741 mmHg 73%
    14:00 +10°C° 0 mm 6 m/S 740 mmHg 73%
    15:00 +10°C° 0 mm 6 m/S 739 mmHg 72%
    16:00 +10°C° 0 mm 6 m/S 738 mmHg 72%
    17:00 +9°C° 0.6 mm 7 m/S 738 mmHg 74%
    18:00 +6°C° 0.6 mm 8 m/S 739 mmHg 77%
    19:00 +5°C° 0.6 mm 10 m/S 739 mmHg 79%
    20:00 +4°C° 0 mm 8 m/S 740 mmHg 78%
    21:00 +3°C° 0 mm 7 m/S 741 mmHg 77%
    22:00 +2°C° 0 mm 5 m/S 742 mmHg 76%
    23:00 +2°C° 0 mm 5 m/S 742 mmHg 76%

    übermorgen, 1 März, Sonntag

    Zeit Temperatur Niederschläge Wind Luftdruck Luftfeuchtigkeit
    00:00 +2°C° 0 mm 5 m/S 742 mmHg 76%
    01:00 +1°C° 0 mm 5 m/S 742 mmHg 76%
    02:00 +1°C° 0 mm 5 m/S 743 mmHg 78%
    03:00 +1°C° 0 mm 5 m/S 743 mmHg 79%
    04:00 +1°C° 0 mm 5 m/S 743 mmHg 80%
    05:00 +1°C° 0 mm 5 m/S 743 mmHg 80%
    06:00 +1°C° 0 mm 5 m/S 743 mmHg 81%
    07:00 +1°C° 0 mm 5 m/S 742 mmHg 81%
    08:00 +2°C° 0 mm 6 m/S 743 mmHg 78%
    09:00 +3°C° 0 mm 7 m/S 743 mmHg 75%
    10:00 +2°C° 0 mm 8 m/S 743 mmHg 71%
    11:00 +4°C° 0.1 mm 8 m/S 743 mmHg 70%
    12:00 +4°C° 0.1 mm 8 m/S 743 mmHg 68%
    13:00 +4°C° 0.1 mm 7 m/S 743 mmHg 67%
    14:00 +4°C° 0 mm 7 m/S 743 mmHg 68%
    15:00 +4°C° 0 mm 7 m/S 743 mmHg 68%
    16:00 +4°C° 0 mm 7 m/S 743 mmHg 69%
    17:00 +3°C° 0 mm 6 m/S 743 mmHg 70%
    18:00 +3°C° 0 mm 5 m/S 743 mmHg 72%
    19:00 +4°C° 0 mm 3 m/S 743 mmHg 73%
    20:00 +4°C° 0 mm 4 m/S 743 mmHg 73%
    21:00 +3°C° 0 mm 5 m/S 742 mmHg 73%
    22:00 +3°C° 0 mm 5 m/S 742 mmHg 73%
    23:00 +2°C° 0 mm 5 m/S 742 mmHg 74%

    2 März, Montag

    Zeit Temperatur Niederschläge Wind Luftdruck Luftfeuchtigkeit
    00:00 +3°C° 0 mm 4 m/S 741 mmHg 76%
    01:00 +3°C° 0 mm 4 m/S 741 mmHg 78%
    02:00 +3°C° 0.9 mm 3 m/S 741 mmHg 83%
    03:00 +3°C° 0.9 mm 3 m/S 740 mmHg 89%
    04:00 +4°C° 0.9 mm 2 m/S 740 mmHg 94%
    05:00 +4°C° 1.3 mm 2 m/S 740 mmHg 95%
    06:00 +4°C° 1.3 mm 2 m/S 740 mmHg 96%
    07:00 +3°C° 1.3 mm 2 m/S 740 mmHg 97%
    08:00 +4°C° 0 mm 2 m/S 740 mmHg 93%
    09:00 +4°C° 0 mm 3 m/S 740 mmHg 90%
    10:00 +4°C° 0 mm 3 m/S 740 mmHg 86%
    11:00 +5°C° 0 mm 3 m/S 740 mmHg 82%
    12:00 +7°C° 0 mm 3 m/S 740 mmHg 77%
    13:00 +7°C° 0 mm 3 m/S 741 mmHg 72%
    14:00 +7°C° 0.2 mm 2 m/S 741 mmHg 74%
    15:00 +7°C° 0.2 mm 2 m/S 741 mmHg 76%
    16:00 +7°C° 0.2 mm 2 m/S 741 mmHg 78%
    17:00 +6°C° 1.1 mm 2 m/S 741 mmHg 84%
    18:00 +5°C° 1.1 mm 2 m/S 741 mmHg 89%
    19:00 +4°C° 1.1 mm 2 m/S 742 mmHg 94%
    20:00 +4°C° 0.9 mm 2 m/S 743 mmHg 95%
    21:00 +3°C° 0.9 mm 3 m/S 743 mmHg 95%
    22:00 +1°C° 0.9 mm 4 m/S 744 mmHg 96%
    23:00 +2°C° 0.2 mm 3 m/S 745 mmHg 95%

    3 März, Dienstag

    Zeit Temperatur Niederschläge Wind Luftdruck Luftfeuchtigkeit
    00:00 +2°C° 0.2 mm 3 m/S 745 mmHg 95%
    01:00 +3°C° 0.2 mm 2 m/S 746 mmHg 95%
    02:00 +2°C° 0 mm 2 m/S 746 mmHg 94%
    03:00 +1°C° 0 mm 2 m/S 747 mmHg 94%
    04:00 +1°C° 0 mm 2 m/S 747 mmHg 93%
    05:00 +1°C° 0 mm 2 m/S 748 mmHg 93%
    06:00 -1°C° 0 mm 2 m/S 749 mmHg 93%
    07:00 -1°C° 0 mm 2 m/S 749 mmHg 92%
    08:00 +1°C° 0 mm 2 m/S 750 mmHg 89%
    09:00 +3°C° 0 mm 2 m/S 750 mmHg 85%
    10:00 +4°C° 0 mm 2 m/S 751 mmHg 81%
    11:00 +4°C° 0 mm 3 m/S 751 mmHg 77%
    12:00 +5°C° 0 mm 3 m/S 752 mmHg 73%
    13:00 +7°C° 0 mm 3 m/S 752 mmHg 69%
    14:00 +7°C° 0.1 mm 2 m/S 752 mmHg 69%
    15:00 +7°C° 0.1 mm 2 m/S 752 mmHg 68%
    16:00 +8°C° 0.1 mm 2 m/S 752 mmHg 67%
    17:00 +7°C° 0.2 mm 1 m/S 753 mmHg 72%
    18:00 +6°C° 0.2 mm 1 m/S 753 mmHg 76%
    19:00 +4°C° 0.2 mm 0 m/S 753 mmHg 81%
    20:00 +5°C° 0 mm 1 m/S 754 mmHg 83%
    21:00 +4°C° 0 mm 1 m/S 754 mmHg 84%
    22:00 +4°C° 0 mm 1 m/S 755 mmHg 86%
    23:00 +4°C° 0 mm 1 m/S 755 mmHg 87%

    4 März, Mittwoch

    Zeit Temperatur Niederschläge Wind Luftdruck Luftfeuchtigkeit
    00:00 +3°C° 0 mm 1 m/S 755 mmHg 89%
    01:00 +3°C° 0 mm 1 m/S 755 mmHg 90%
    02:00 +2°C° 0 mm 1 m/S 755 mmHg 91%
    03:00 +2°C° 0 mm 1 m/S 755 mmHg 91%
    04:00 +2°C° 0 mm 1 m/S 755 mmHg 91%
    05:00 +2°C° 0 mm 1 m/S 755 mmHg 91%
    06:00 +1°C° 0 mm 1 m/S 755 mmHg 92%
    07:00 +1°C° 0 mm 1 m/S 755 mmHg 92%
    08:00 +2°C° 0 mm 1 m/S 755 mmHg 86%
    09:00 +4°C° 0 mm 1 m/S 755 mmHg 80%
    10:00 +5°C° 0 mm 1 m/S 755 mmHg 74%
    11:00 +6°C° 0 mm 1 m/S 755 mmHg 68%
    12:00 +7°C° 0 mm 1 m/S 754 mmHg 62%
    13:00 +8°C° 0 mm 1 m/S 754 mmHg 56%
    14:00 +8°C° 0.1 mm 1 m/S 754 mmHg 55%
    15:00 +8°C° 0.1 mm 1 m/S 753 mmHg 54%
    16:00 +8°C° 0.1 mm 1 m/S 753 mmHg 53%
    17:00 +7°C° 0 mm 1 m/S 753 mmHg 59%
    18:00 +5°C° 0 mm 2 m/S 753 mmHg 65%
    19:00 +3°C° 0 mm 2 m/S 753 mmHg 71%
    20:00 +3°C° 0 mm 2 m/S 752 mmHg 75%
    21:00 +3°C° 0 mm 2 m/S 752 mmHg 78%
    22:00 +2°C° 0 mm 2 m/S 752 mmHg 82%
    23:00 +2°C° 0 mm 2 m/S 751 mmHg 84%
    Mehr zeigen